Preview of NWS' New Version of Forecast
This preview is not operational and should not be used for support decisions.

Regional Weather Roundup (RWR)

Issued by National Weather Service (NWS)

                            
000
ASUS43 KMKX 240920
RWRWI 

WISCONSIN REGIONAL WEATHER ROUNDUP
NATIONAL WEATHER SERVICE MILWAUKEE/SULLIVAN WI
400 AM CDT SUN MAR 24 2019

NOTE: "FAIR" INDICATES FEW OR NO CLOUDS BELOW 12,000 FEET WITH NO
SIGNIFICANT WEATHER AND/OR OBSTRUCTIONS TO VISIBILITY.

WIZ001-002-006>008-014>016-023>028-241000-
NORTHWEST WISCONSIN
  
CITY           SKY/WX    TMP DP  RH WIND       PRES   REMARKS
SUPERIOR ARPT  CLOUDY    35  28  78 SW7       30.09S WCI  29          
ASHLAND        CLOUDY    32  26  78 SW6       30.09S WCI  26          
HAYWARD        FAIR      26  24  92 CALM      30.10R                  
SIREN          FAIR      25  23  93 CALM      30.10S                  
CUMBERLAND     FAIR      30  28  93 SE3       30.09F                  
RICE LAKE      FAIR      31  29  92 N6        30.11F WCI  26          
CHETEK         FAIR      28  26  92 CALM      30.10S                  
LADYSMITH      FAIR      31  26  79 CALM      30.12S                  
EAU CLAIRE     FAIR      30  25  81 CALM      30.09F                  
MENOMONIE      FAIR      28  24  85 CALM      30.09F                  
NEW RICHMOND   FAIR      32  30  93 CALM      30.09S                  
OSCEOLA        FAIR      32  30  94 CALM      30.12F                  
$$
 
WIZ003>005-009-010-017-018-241000-
NORTH CENTRAL WISCONSIN
  
CITY           SKY/WX    TMP DP  RH WIND       PRES   REMARKS
MANITOWISH WTR NOT AVBL                                               
ARBOR VITAE    FAIR      37  29  74 W5        30.06S WCI  33          
WOODRUFF       FAIR      37  29  74 W5        30.06S WCI  33          
RHINELANDER    FAIR      28  20  71 W5        30.07F WCI  23          
EAGLE RIVER    FAIR      27  21  78 W5        30.06S WCI  21          
LAND O LAKES   FAIR      34  24  68 W7        30.07S WCI  28          
PHILLIPS       FAIR      22  20  92 CALM      30.08F                  
TOMAHAWK       FAIR      23  21  92 CALM      30.09S                  
MEDFORD        FAIR      31  24  74 NW5       30.08S WCI  26          
MERRILL        FAIR      22  21  95 CALM      30.10S                  
$$
 
WIZ029-030-035-036-043>047-241000-
CENTRAL WISCONSIN
  
CITY           SKY/WX    TMP DP  RH WIND       PRES   REMARKS
WAUSAU         FAIR      28  24  85 CALM      30.07F                  
MOSINEE        FAIR      34  27  75 NW3       30.10S                  
MARSHFIELD     FAIR      37  28  70 W3        30.07F                  
STEVENS POINT  FAIR      31  27  84 CALM      30.10S                  
WAUPACA        FAIR      35  29  77 CALM      30.10F                  
WAUTOMA        FAIR      29  27  92 CALM      30.11F                  
WISC RAPIDS    FAIR      32  24  72 CALM      30.10F                  
CAMP DOUGLAS   FAIR      31  31  99 CALM      30.10F                  
$$
 
WIZ011>013-019>022-031-037>040-048>050-241000-
NORTHEAST WISCONSIN
  
CITY           SKY/WX    TMP DP  RH WIND       PRES   REMARKS
ANTIGO         FAIR      30  24  76 NW5       30.09R WCI  25          
SHAWANO        FAIR      34  25  70 CALM      30.09S                  
OCONTO         FAIR      30  26  86 CALM      30.09S                  
STURGEON BAY   FAIR      39  30  70 W10       30.09F WCI  32          
GREEN BAY      FAIR      40  31  70 SW5       30.10S                  
MANITOWOC      FAIR      39  30  70 SW5       30.11F                  
APPLETON       FAIR      36  28  75 SW8       30.08F WCI  29          
CLINTONVILLE   FAIR      37  29  71 W3        30.10S                  
OSHKOSH        FAIR      40  30  67 SW6       30.10F                  
$$
 
WIZ032>034-041-042-053>061-241000-
SOUTHWEST WISCONSIN
  
CITY           SKY/WX    TMP DP  RH WIND       PRES   REMARKS
LA CROSSE      CLOUDY    38  32  79 SE5       30.10F WCI  34          
SPARTA         CLOUDY    32  28  85 CALM      30.10F                  
VIROQUA        FAIR      40  32  71 S3        30.09F                  
BOSCOBEL       CLOUDY    38  32  79 CALM      30.12F                  
PRAIRIE DU CHI LGT RAIN  42  35  76 CALM      30.10F                  
PLATTEVILLE    CLOUDY    41  38  91 S8        30.12S                  
$$

WIZ056-057-062-063-064-067-068-241000-
SOUTH CENTRAL WISCONSIN
  
CITY           SKY/WX    TMP DP  RH WIND       PRES   REMARKS
REEDSBURG      MOCLDY    36  31  82 CALM      30.10F                  
BARABOO/DELLS  MOCLDY    38  30  72 SW3       30.10F                  
LONE ROCK      MOCLDY    41  33  73 NE3       30.11F                  
MINERAL POINT  FAIR      41  34  75 CALM      30.10F                  
MADISON        FAIR      40  30  67 S3        30.11F                  
MIDDLETON      FAIR      34  32  91 CALM      30.12F                  
WATERTOWN      FAIR      34  32  91 CALM      30.11F                  
MONROE         FAIR      41  31  66 MISG      30.10F                  
JANESVILLE     MOCLDY    39  32  75 CALM      30.12F                  
$$
 
WIZ051-052-058>065-066-070>072-241000-
SOUTHEAST WISCONSIN
  
CITY           SKY/WX    TMP DP  RH WIND       PRES   REMARKS
MILWAUKEE      CLOUDY    38  27  64 SW5       30.13F WCI  34          
WAUKESHA       FAIR      37  28  70 SW5       30.13F WCI  34          
MILWAUKEE/TIMM FAIR      37  27  65 CALM      30.13F                  
RACINE         FAIR      40  27  59 SW7       30.15F                  
KENOSHA        FAIR      39  30  70 S5        30.14F                  
FOND DU LAC    FAIR      38  30  73 SW8       30.11F WCI  32          
SHEBOYGAN      FAIR      33  28  81 S5        30.11F WCI  29          
WEST BEND      FAIR      37  28  70 CALM      30.12F                  
JUNEAU         FAIR      37  30  75 S3        30.13F                  
$$

LSZ147-162-241000-
LAKE SUPERIOR
  
STATION/POSITION TIME  TEMP    WIND        PRES    WAVE
                       AIR SEA DIR/SP/G            HT/PER
                 (UTC) (F)     (DEG/KT/KT) (MB)    (FT/S)
DEVILS ISLAND    0900   36     250/ 15/ 17 1018.9R
SAXON HARBOR     0830   39     200/  7/ 10 1018.3R
$$
 
LMZ867-665-643>646-241000-
LAKE MICHIGAN
  
STATION/POSITION TIME  TEMP    WIND        PRES    WAVE
                       AIR SEA DIR/SP/G            HT/PER
                 (UTC) (F)     (DEG/KT/KT) (MB)    (FT/S)
NORTHPORT PIER   0840   40     260/  3/  6 1017.9F
KEWAUNEE LAKESHO 0854   37      CALM  /  3 1018.3F
SHEBOYGAN LAKESH 0900   39     210/  6/  6 1020.3F
PORT WASHINGTON  0830   38      CALM  /  4 1021.7F
MILWAUKEE LAKESH 0900   41                   N/A
KENOSHA   LAKESH 0900   40     200/  4/  5 1020.7
$$

TC  - TEMPERATURE IN CELSIUS
VSB - VISIBILITY IN STATUTE MILES
WCI - WIND CHILL INDEX
HX  - HEAT INDEX